Location: Glen Avon
(34.0117°N, 117.4848°W)
Time: 00:30:24
(UTC+00:00)

Daily predictions for brighter satellites

Satellite Brightness Start Highest point End
(mag) Time Altitude Azimuth Time Altitude Azimuth Time Altitude Azimuth
CZ-2D R/B 3.3 02:10:31 10° SSE 02:14:19 61° ENE 02:18:10 10° N
CZ-2C R/B 4.2 02:11:55 10° ENE 02:14:56 15° E 02:17:57 10° SE
IRS-1C Rocket 4.3 02:09:42 10° S 02:14:57 80° WSW 02:20:13 10° NNW
SL-24 R/B 4.1 02:11:02 10° SSE 02:15:18 83° ENE 02:19:46 10° N
Okean-O 2.6 02:12:42 10° SSE 02:17:04 65° ENE 02:21:28 10° N
SL-16 R/B 3.0 02:11:33 10° NNW 02:17:05 56° WSW 02:22:35 10° S
SWARM A 4.4 02:15:13 10° N 02:18:33 80° W 02:21:52 10° S
Cosmos 2263 Rocket 2.3 02:14:49 10° SSW 02:20:22 85° WNW 02:25:58 10° NNE
Cosmos 990 Rocket 4.3 02:15:54 10° SSW 02:21:01 73° WNW 02:26:10 10° NNE
NOSS 2-2 (E) 2.9 02:18:24 10° SSW 02:21:56 79° ESE 02:25:31 10° NNE
DELTA 2 R/B (1) 4.0 02:16:43 10° WNW 02:22:09 53° N 02:27:34 10° E
Cosmos 1378 3.8 02:19:08 10° NNW 02:22:47 59° W 02:26:26 10° S
Meteor 2-9 Rocket 4.3 02:18:19 10° S 02:24:08 67° E 02:29:54 10° NNE
CZ-2C R/B 3.5 02:20:52 10° SE 02:25:40 43° ENE 02:30:47 10° N
Cosmos 1844 Rocket 3.9 02:24:06 10° SE 02:27:50 19° E 02:31:36 10° ENE
SEDSat Delta rocket 4.4 02:24:32 10° W 02:29:35 38° SSW 02:34:01 10° SE
Cosmos 923 Rocket 4.1 02:24:55 10° NNW 02:30:09 86° WSW 02:35:20 10° SSE
NOSS 2-2 (D) 2.9 02:26:54 10° SSW 02:30:28 74° ESE 02:34:00 10° NE
USA 116 3.5 02:26:55 10° NNE 02:30:29 77° ESE 02:34:30 10° S
YAOGAN 1 2.5 02:26:19 10° SSE 02:30:35 65° ENE 02:34:53 10° N
GP-B 3.7 02:31:04 10° N 02:35:27 61° W 02:39:49 10° SSW
ATLAS 5 CENTAUR R/B 3.4 02:33:27 10° NNW 02:37:03 43° ENE 02:48:24 10° SE
Okean 2 3.4 02:34:16 10° N 02:38:25 65° E 02:42:30 10° SSE
Cosmos 1943 3.5 02:37:18 10° N 02:42:46 48° ENE 02:48:12 10° SE
Cosmos 1975 3.6 02:40:58 10° SSW 02:44:58 56° W 02:49:00 10° N
Cosmos 1464 Rocket 4.2 02:39:38 10° SSE 02:45:21 43° E 02:51:06 10° NNE
CZ-4 R/B 2.1 02:42:58 10° S 02:47:08 61° W 02:51:19 10° NNW
CSL-04 Debris 4.1 02:43:17 10° SSE 02:48:38 72° ENE 02:54:00 10° N
Cosmos 1782 Rocket 4.0 02:46:35 10° SSW 02:50:56 66° W 02:55:20 10° N
Cosmos 2151 Rocket 4.4 02:49:56 10° SSE 02:53:44 29° E 02:57:36 10° NNE
CZ-2C R/B 0.8 02:51:04 10° W 02:54:40 80° N 02:56:26 26° ENE
Meteor 1-21 4.1 02:50:59 10° N 02:56:35 77° E 03:02:10 10° SSE
CSL-04 Rocket 3.6 02:52:30 10° SSE 02:57:52 83° ENE 03:03:21 10° NNW
Cosmos 1025 Rocket 4.0 02:56:28 10° NNE 03:00:10 26° ENE 03:00:45 25° E
Cosmos 1603 3.6 02:56:55 10° NNW 03:02:36 86° ENE 03:08:12 10° SSE
Milstar 3 Cent rocket 3.2 02:57:42 10° SW 03:03:56 30° SSE 03:06:06 22° SE
Cosmos 372 Rocket 3.9 03:01:29 10° SSW 03:06:43 87° ESE 03:11:59 10° NNE
Cosmos 1842 4.0 03:03:06 10° NNW 03:06:52 53° W 03:10:38 10° S
Cosmos 2150 Rocket 4.0 03:06:37 10° S 03:11:49 57° ESE 03:17:07 10° NNE
Cosmos 1891 Rocket 4.4 03:06:45 10° S 03:12:56 83° E 03:19:03 10° N
DMSP B5D2-2 4.3 03:09:53 10° NNE 03:14:58 47° E 03:20:01 10° S
SJ-6B 3.9 03:19:56 27° NE 03:19:56 27° NE 03:22:15 10° N
Cosmos 1707 2.5 03:16:58 10° N 03:20:48 69° E 03:21:45 46° SSE
Cosmos 1975 Rocket 3.6 03:17:03 10° NNW 03:21:18 56° W 03:25:30 10° S
Cosmos 2084 Rocket 3.5 03:17:02 10° NNW 03:21:32 90° NW 03:23:22 36° SSE
Cosmos 1125 Rocket 3.7 03:16:47 10° S 03:21:47 45° ESE 03:26:50 10° NNE
ISS -1.3 03:20:59 10° W 03:23:36 20° NNW 03:26:12 10° NNE
MOS 1 Rocket 4.1 03:19:37 10° N 03:23:51 47° WNW 03:27:57 10° SSW
USA 102 4.3 03:37:51 62° SW 03:38:15 64° WSW 03:44:27 10° NNW
H-2A R/B 3.1 03:35:14 10° S 03:39:52 43° W 03:44:38 10° NNW
USA 234 3.3 03:34:07 10° NE 03:40:40 81° NW 03:47:13 10° SW
Cosmos 2034 Rocket 4.0 03:36:01 10° S 03:42:24 87° W 03:48:47 10° N
SL-08 RB Rocket 3.8 03:43:25 38° S 03:45:07 72° W 03:49:42 10° NNW
ARGOS 3.7 03:40:09 10° S 03:45:22 55° W 03:50:39 10° NNW
Nadezhda 4 Rocket 3.8 03:39:53 10° N 03:46:00 70° E 03:47:45 47° SSE
In-Cosmos 22 4.0 03:42:35 10° N 03:47:54 88° W 03:49:36 45° S
CZ-2C R/B 3.2 03:50:03 10° N 03:55:30 61° WNW 04:01:01 10° SSW
USA 186 4.2 03:57:54 21° NW 03:57:54 21° NW 03:59:17 10° NNW
Cosmos 1048 Rocket 4.5 03:51:15 10° N 03:55:32 48° NNE 03:55:32 48° NNE
MOS 1 4.2 03:56:46 55° S 03:58:08 86° WSW 04:03:51 10° NNW
Cosmos 1844 3.8 03:54:39 10° SSW 04:00:22 76° WNW 04:06:04 10° NNE
ATLAS 2A CENTAUR R/B 4.5 02:55:55 10° W 04:04:54 67° SSW 04:10:53 43° SE
DELTA 2 R/B (1) 3.7 04:03:14 10° WNW 04:08:23 67° SW 04:08:23 67° SW
BREEZE-M DEB (TANK) 4.4 03:52:55 10° WNW 04:11:07 74° NNE 04:12:07 64° E
Cosmos 1844 Rocket 3.6 04:05:57 10° SW 04:11:16 47° WNW 04:16:38 10° N
Ariane Rocket 3.7 04:11:02 43° SW 04:12:02 49° W 04:16:57 10° NNW
Cosmos 1634 Rocket 4.5 04:17:30 48° NNE 04:17:30 48° NNE 04:21:51 10° N
ATLAS 2AS CENTAUR R/B 2.9 04:08:19 10° SSW 04:16:06 70° ESE 04:24:01 10° NE
Cosmos 2285 Rocket 4.3 04:15:22 10° SSW 04:21:35 64° WNW 04:27:52 10° N
CENTAUR R/B 3.4 04:26:48 10° NNW 04:34:28 54° NE 04:34:28 54° NE
USA 238 DEB 4.0 04:36:32 10° NNW 04:42:53 70° NNW 04:42:53 70° NNW
USA 238 4.0 04:36:38 10° NNW 04:42:58 69° NNW 04:42:58 69° NNW
Cosmos 1697 Rocket 4.2 11:01:20 25° N 11:01:20 25° N 11:03:54 10° N
CZ-2C R/B 4.5 10:55:15 10° NE 10:59:29 25° E 11:02:27 16° SE
Cosmos 1980 Rocket 2.8 11:04:19 49° N 11:04:19 49° N 11:08:26 10° NNE
Cosmos 2322 Rocket 4.3 11:04:29 10° SSE 11:08:43 22° E 11:12:59 10° NE
SL-16 R/B 3.7 11:13:21 20° SSE 11:16:27 33° ESE 11:21:28 10° NE
Cosmos 2263 Rocket 4.4 11:12:49 10° N 11:17:17 23° ENE 11:21:45 10° ESE
Meteor 1-14 Rocket 4.3 11:18:59 10° N 11:24:34 72° E 11:30:04 10° SSE
Lacrosse 5 3.7 11:27:59 19° NNW 11:27:59 19° NNW 11:30:41 10° N
Cosmos 1238 Rocket 3.9 11:23:36 10° N 11:30:11 84° E 11:36:03 10° S
Cosmos 921 Rocket 3.5 11:32:00 51° NNE 11:32:00 51° NNE 11:35:10 10° NNE
NOSS 3-3 (A) 3.6 11:32:28 70° W 11:32:54 73° WNW 11:39:06 10° NNE
NOSS 3-3 (C) 3.6 11:32:38 70° W 11:33:02 74° WNW 11:39:10 10° NNE
Meteor 2-6 Rocket 4.3 11:31:13 39° S 11:33:22 77° E 11:39:06 10° N
Cosmos 44 4.3 11:37:02 31° NNW 11:37:02 31° NNW 11:39:55 10° NNE
Cosmos 2228 Rocket 3.5 11:38:52 52° NNW 11:38:52 52° NNW 11:42:17 10° N
X-37B 3.5 11:42:47 11° N 11:42:47 11° N 11:43:45 10° NNE
Meteor 1-4 Rocket 3.2 11:43:45 51° E 11:43:45 51° E 11:47:01 10° NNE
